QPF
0.04 0.04 0.05 0.05 0.04 0.03 0.02 0.02 0.03 0.02 0.01 0.01 0.00 0.00 0.01 0.01 0.01 0.02 0.02 0.02 0.03 0.03 0.03 0.02 0.02 0.01 0.01 0.01 0.01 0.01 0.01 0.03 0.06 0.07 0.06 0.04 0.04 0.04
0.04 0.04 0.04 0.04 0.04 0.04 0.03 0.02 0.02 0.02 0.02 0.01 0.00 0.00 0.01 0.01 0.01 0.02 0.02 0.02 0.02 0.03 0.04 0.03 0.02 0.02 0.01 0.01 0.01 0.01 0.01 0.02 0.04 0.06 0.07 0.05 0.04 0.03
0.03 0.03 0.03 0.03 0.03 0.03 0.03 0.03 0.02 0.02 0.02 0.01 0.01 0.01 0.01 0.01 0.01 0.01 0.02 0.02 0.02 0.03 0.04 0.04 0.04 0.02 0.02 0.01 0.01 0.01 0.01 0.01 0.02 0.04 0.05 0.05 0.04 0.03
0.02 0.03 0.03 0.03 0.03 0.03 0.02 0.02 0.02 0.02 0.01 0.01 0.01 0.01 0.01 0.02 0.01 0.02 0.02 0.02 0.02 0.03 0.03 0.04 0.04 0.03 0.02 0.02 0.01 0.01 0.01 0.01 0.02 0.03 0.04 0.04 0.04 0.03
0.02 0.02 0.03 0.03 0.03 0.03 0.03 0.03 0.02 0.02 0.02 0.02 0.01 0.01 0.01 0.01 0.02 0.02 0.02 0.03 0.02 0.02 0.03 0.04 0.05 0.04 0.03 0.02 0.02 0.01 0.01 0.01 0.01 0.02 0.03 0.04 0.04 0.05
0.04 0.03 0.03 0.03 0.03 0.03 0.03 0.03 0.03 0.04 0.04 0.04 0.03 0.01 0.01 0.01 0.02 0.03 0.03 0.04 0.05 0.04 0.04 0.04 0.05 0.05 0.05 0.03 0.02 0.02 0.01 0.02 0.02 0.03 0.03 0.03 0.04 0.04
0.06 0.05 0.05 0.05 0.05 0.04 0.04 0.04 0.04 0.05 0.04 0.04 0.03 0.02 0.01 0.01 0.02 0.02 0.03 0.03 0.04 0.05 0.06 0.06 0.06 0.05 0.06 0.05 0.04 0.03 0.02 0.02 0.03 0.04 0.05 0.05 0.04 0.05
0.07 0.07 0.06 0.06 0.06 0.05 0.04 0.04 0.04 0.05 0.04 0.04 0.03 0.02 0.02 0.02 0.02 0.02 0.03 0.03 0.04 0.04 0.05 0.06 0.06 0.06 0.06 0.06 0.06 0.04 0.03 0.03 0.03 0.04 0.05 0.06 0.06 0.05
0.05 0.07 0.07 0.06 0.05 0.04 0.04 0.04 0.04 0.04 0.04 0.04 0.03 0.02 0.02 0.02 0.02 0.03 0.03 0.03 0.03 0.03 0.03 0.05 0.06 0.07 0.06 0.07 0.07 0.06 0.06 0.05 0.05 0.05 0.05 0.06 0.06 0.07
0.06 0.06 0.06 0.06 0.06 0.05 0.04 0.04 0.04 0.04 0.04 0.03 0.04 0.03 0.03 0.02 0.03 0.03 0.03 0.04 0.04 0.04 0.04 0.06 0.07 0.07 0.07 0.08 0.09 0.09 0.09 0.08 0.07 0.06 0.06 0.06 0.07 0.07
0.06 0.06 0.05 0.06 0.07 0.07 0.06 0.05 0.04 0.04 0.04 0.05 0.06 0.06 0.06 0.06 0.06 0.07 0.08 0.08 0.08 0.07 0.06 0.07 0.08 0.08 0.09 0.09 0.10 0.10 0.09 0.09 0.09 0.08 0.07 0.07 0.07 0.07
0.05 0.06 0.06 0.06 0.06 0.07 0.07 0.06 0.05 0.04 0.04 0.04 0.04 0.05 0.05 0.05 0.05 0.06 0.07 0.07 0.06 0.06 0.05 0.05 0.06 0.07 0.09 0.10 0.10 0.09 0.09 0.09 0.09 0.09 0.09 0.08 0.06 0.05
0.04 0.04 0.05 0.07 0.07 0.07 0.06 0.06 0.05 0.05 0.04 0.04 0.04 0.04 0.04 0.04 0.05 0.05 0.06 0.05 0.05 0.04 0.04 0.04 0.04 0.04 0.05 0.07 0.07 0.07 0.07 0.07 0.07 0.07 0.07 0.07 0.06 0.05
0.04 0.04 0.04 0.05 0.06 0.06 0.07 0.06 0.06 0.06 0.06 0.05 0.04 0.04 0.04 0.05 0.05 0.05 0.07 0.06 0.04 0.03 0.03 0.03 0.04 0.04 0.04 0.04 0.05 0.05 0.05 0.05 0.04 0.05 0.06 0.06 0.05 0.05
0.04 0.05 0.05 0.05 0.05 0.06 0.06 0.07 0.07 0.07 0.06 0.05 0.04 0.04 0.04 0.05 0.05 0.06 0.06 0.06 0.06 0.05 0.05 0.05 0.04 0.04 0.04 0.04 0.04 0.04 0.04 0.04 0.04 0.04 0.04 0.04 0.04 0.04
0.06 0.06 0.06 0.06 0.06 0.06 0.06 0.06 0.06 0.06 0.06 0.05 0.04 0.04 0.04 0.04 0.05 0.05 0.05 0.06 0.06 0.07 0.07 0.07 0.06 0.05 0.06 0.05 0.05 0.05 0.04 0.04 0.04 0.03 0.03 0.03 0.03 0.03
0.05 0.04 0.05 0.05 0.05 0.06 0.06 0.05 0.05 0.06 0.06 0.05 0.05 0.05 0.04 0.04 0.04 0.05 0.05 0.05 0.05 0.06 0.07 0.08 0.08 0.07 0.06 0.05 0.06 0.05 0.04 0.03 0.03 0.03 0.03 0.03 0.03 0.02
0.05 0.05 0.05 0.05 0.04 0.04 0.04 0.04 0.04 0.04 0.04 0.05 0.05 0.05 0.05 0.04 0.04 0.05 0.05 0.05 0.05 0.05 0.05 0.06 0.07 0.07 0.06 0.06 0.06 0.05 0.05 0.04 0.03 0.03 0.02 0.02 0.02 0.02
0.05 0.04 0.04 0.04 0.04 0.04 0.04 0.04 0.04 0.05 0.05 0.05 0.05 0.05 0.05 0.05 0.05 0.04 0.04 0.05 0.05 0.05 0.05 0.05 0.05 0.05 0.05 0.05 0.06 0.05 0.04 0.04 0.03 0.03 0.02 0.01 0.01 0.01
0.04 0.04 0.03 0.03 0.03 0.03 0.04 0.04 0.04 0.05 0.05 0.05 0.05 0.05 0.05 0.05 0.05 0.05 0.04 0.04 0.04 0.05 0.05 0.04 0.04 0.04 0.04 0.04 0.04 0.04 0.03 0.03 0.03 0.03 0.02 0.02 0.01 0.01
0.03 0.03 0.03 0.03 0.03 0.03 0.03 0.04 0.04 0.04 0.04 0.04 0.05 0.05 0.05 0.05 0.05 0.05 0.05 0.04 0.04 0.04 0.04 0.04 0.04 0.03 0.03 0.03 0.03 0.03 0.03 0.02 0.02 0.03 0.02 0.02 0.02 0.01
0.03 0.02 0.02 0.02 0.02 0.02 0.03 0.03 0.03 0.04 0.04 0.04 0.04 0.04 0.05 0.05 0.05 0.05 0.05 0.04 0.04 0.04 0.03 0.03 0.03 0.03 0.03 0.03 0.03 0.03 0.03 0.03 0.02 0.02 0.02 0.02 0.02 0.02
0.02 0.02 0.02 0.02 0.02 0.02 0.02 0.03 0.03 0.03 0.03 0.04 0.04 0.04 0.04 0.04 0.04 0.04 0.04 0.04 0.04 0.04 0.03 0.03 0.03 0.03 0.03 0.03 0.03 0.03 0.02 0.02 0.02 0.02 0.02 0.01 0.01 0.01
MSLP
1026.44 1026.98 1027.49 1027.96 1028.37 1028.73 1029.02 1029.27 1029.48 1029.68 1029.86 1030.05 1030.24 1030.43 1030.62 1030.81 1030.99 1031.18 1031.36 1031.54 1031.73 1031.91 1032.08 1032.23 1032.35 1032.43 1032.48 1032.49 1032.46 1032.41 1032.34 1032.25 1032.16 1032.05 1031.92 1031.77 1031.57 1031.33
1026.32 1026.87 1027.38 1027.84 1028.23 1028.56 1028.83 1029.06 1029.25 1029.43 1029.60 1029.79 1029.98 1030.19 1030.40 1030.62 1030.83 1031.04 1031.25 1031.45 1031.64 1031.82 1031.98 1032.11 1032.22 1032.29 1032.32 1032.31 1032.27 1032.22 1032.14 1032.06 1031.97 1031.86 1031.74 1031.58 1031.39 1031.14
1026.12 1026.68 1027.20 1027.66 1028.05 1028.36 1028.62 1028.82 1029.00 1029.16 1029.33 1029.51 1029.71 1029.93 1030.15 1030.39 1030.62 1030.85 1031.07 1031.28 1031.47 1031.65 1031.81 1031.93 1032.03 1032.10 1032.13 1032.13 1032.11 1032.07 1032.01 1031.94 1031.86 1031.77 1031.65 1031.50 1031.30 1031.05
1025.79 1026.38 1026.92 1027.38 1027.78 1028.09 1028.34 1028.54 1028.71 1028.87 1029.04 1029.22 1029.42 1029.64 1029.87 1030.11 1030.35 1030.59 1030.81 1031.02 1031.22 1031.39 1031.55 1031.68 1031.79 1031.87 1031.92 1031.96 1031.97 1031.97 1031.95 1031.91 1031.85 1031.78 1031.66 1031.51 1031.31 1031.06
1025.33 1025.94 1026.49 1026.98 1027.39 1027.72 1027.98 1028.19 1028.37 1028.54 1028.71 1028.89 1029.09 1029.31 1029.54 1029.78 1030.02 1030.25 1030.47 1030.67 1030.86 1031.04 1031.20 1031.35 1031.49 1031.61 1031.71 1031.79 1031.86 1031.91 1031.94 1031.95 1031.92 1031.86 1031.76 1031.61 1031.41 1031.15
1024.76 1025.38 1025.94 1026.45 1026.88 1027.24 1027.52 1027.76 1027.96 1028.14 1028.32 1028.51 1028.71 1028.93 1029.16 1029.39 1029.62 1029.84 1030.05 1030.25 1030.44 1030.62 1030.80 1030.98 1031.15 1031.32 1031.48 1031.64 1031.77 1031.89 1031.98 1032.03 1032.04 1032.00 1031.91 1031.76 1031.56 1031.31
1024.10 1024.72 1025.30 1025.82 1026.27 1026.65 1026.97 1027.23 1027.46 1027.66 1027.86 1028.06 1028.27 1028.49 1028.72 1028.94 1029.16 1029.38 1029.58 1029.78 1029.98 1030.18 1030.38 1030.59 1030.81 1031.04 1031.26 1031.48 1031.69 1031.87 1032.02 1032.12 1032.16 1032.15 1032.07 1031.93 1031.73 1031.49
1023.40 1024.00 1024.57 1025.10 1025.57 1025.98 1026.32 1026.62 1026.87 1027.10 1027.33 1027.55 1027.77 1028.00 1028.23 1028.46 1028.68 1028.90 1029.12 1029.32 1029.54 1029.75 1029.99 1030.23 1030.50 1030.77 1031.06 1031.34 1031.61 1031.84 1032.04 1032.18 1032.26 1032.27 1032.21 1032.08 1031.90 1031.67
1022.66 1023.24 1023.81 1024.33 1024.81 1025.23 1025.60 1025.92 1026.21 1026.47 1026.72 1026.97 1027.21 1027.46 1027.71 1027.96 1028.21 1028.45 1028.69 1028.92 1029.16 1029.41 1029.67 1029.95 1030.25 1030.56 1030.88 1031.21 1031.51 1031.79 1032.02 1032.19 1032.30 1032.33 1032.30 1032.19 1032.03 1031.82
1021.89 1022.45 1023.00 1023.51 1023.99 1024.43 1024.82 1025.17 1025.48 1025.77 1026.06 1026.33 1026.61 1026.90 1027.19 1027.48 1027.77 1028.06 1028.34 1028.61 1028.89 1029.17 1029.46 1029.76 1030.08 1030.42 1030.75 1031.09 1031.41 1031.70 1031.95 1032.14 1032.26 1032.32 1032.31 1032.24 1032.11 1031.94
1021.08 1021.62 1022.15 1022.66 1023.14 1023.58 1023.99 1024.36 1024.71 1025.03 1025.35 1025.67 1026.00 1026.34 1026.68 1027.03 1027.38 1027.73 1028.07 1028.41 1028.73 1029.05 1029.37 1029.69 1030.01 1030.34 1030.67 1031.00 1031.30 1031.59 1031.83 1032.03 1032.17 1032.25 1032.27 1032.23 1032.14 1032.00
1020.21 1020.73 1021.25 1021.76 1022.25 1022.70 1023.13 1023.53 1023.91 1024.27 1024.63 1025.00 1025.38 1025.78 1026.19 1026.62 1027.05 1027.47 1027.88 1028.28 1028.66 1029.02 1029.36 1029.69 1030.01 1030.33 1030.63 1030.93 1031.21 1031.47 1031.69 1031.88 1032.03 1032.13 1032.18 1032.17 1032.12 1032.03
1019.28 1019.79 1020.31 1020.83 1021.33 1021.81 1022.26 1022.69 1023.10 1023.51 1023.92 1024.33 1024.77 1025.23 1025.72 1026.22 1026.73 1027.23 1027.73 1028.19 1028.63 1029.03 1029.40 1029.74 1030.05 1030.34 1030.62 1030.88 1031.12 1031.35 1031.55 1031.73 1031.88 1031.99 1032.06 1032.09 1032.08 1032.02
1018.30 1018.82 1019.34 1019.87 1020.40 1020.91 1021.40 1021.86 1022.32 1022.77 1023.22 1023.69 1024.18 1024.70 1025.25 1025.82 1026.40 1026.98 1027.55 1028.09 1028.58 1029.03 1029.43 1029.78 1030.09 1030.37 1030.61 1030.84 1031.05 1031.24 1031.42 1031.59 1031.74 1031.86 1031.95 1032.00 1032.01 1031.97
1017.32 1017.84 1018.39 1018.94 1019.50 1020.05 1020.58 1021.09 1021.58 1022.07 1022.56 1023.07 1023.60 1024.17 1024.77 1025.40 1026.04 1026.69 1027.32 1027.92 1028.47 1028.97 1029.40 1029.78 1030.09 1030.36 1030.60 1030.80 1030.99 1031.16 1031.33 1031.48 1031.62 1031.74 1031.83 1031.89 1031.91 1031.88
1016.42 1016.94 1017.51 1018.09 1018.68 1019.27 1019.84 1020.39 1020.92 1021.44 1021.96 1022.50 1023.06 1023.66 1024.29 1024.95 1025.64 1026.33 1027.02 1027.67 1028.27 1028.82 1029.29 1029.70 1030.04 1030.33 1030.57 1030.77 1030.95 1031.11 1031.26 1031.40 1031.53 1031.64 1031.73 1031.78 1031.79 1031.75
1015.67 1016.20 1016.77 1017.38 1018.01 1018.62 1019.23 1019.81 1020.38 1020.92 1021.46 1022.01 1022.58 1023.19 1023.83 1024.51 1025.22 1025.94 1026.66 1027.35 1028.00 1028.60 1029.12 1029.58 1029.96 1030.27 1030.54 1030.75 1030.94 1031.10 1031.24 1031.37 1031.48 1031.57 1031.63 1031.66 1031.64 1031.58
1015.17 1015.69 1016.27 1016.89 1017.54 1018.18 1018.81 1019.42 1020.00 1020.55 1021.10 1021.65 1022.22 1022.82 1023.45 1024.13 1024.84 1025.57 1026.31 1027.04 1027.73 1028.37 1028.94 1029.45 1029.87 1030.23 1030.53 1030.78 1030.97 1031.14 1031.28 1031.39 1031.47 1031.53 1031.55 1031.53 1031.47 1031.36
1014.97 1015.48 1016.06 1016.68 1017.33 1017.98 1018.62 1019.23 1019.82 1020.38 1020.92 1021.46 1022.01 1022.59 1023.22 1023.88 1024.58 1025.31 1026.06 1026.81 1027.53 1028.21 1028.83 1029.38 1029.86 1030.26 1030.59 1030.86 1031.08 1031.25 1031.37 1031.46 1031.51 1031.52 1031.49 1031.42 1031.30 1031.13
1015.12 1015.61 1016.16 1016.77 1017.41 1018.05 1018.68 1019.29 1019.87 1020.42 1020.95 1021.48 1022.02 1022.58 1023.18 1023.83 1024.52 1025.25 1026.00 1026.75 1027.50 1028.20 1028.86 1029.45 1029.96 1030.40 1030.76 1031.05 1031.27 1031.43 1031.54 1031.59 1031.60 1031.56 1031.47 1031.33 1031.14 1030.91
1015.61 1016.07 1016.59 1017.17 1017.78 1018.40 1019.02 1019.61 1020.18 1020.71 1021.23 1021.75 1022.27 1022.82 1023.40 1024.03 1024.71 1025.43 1026.18 1026.94 1027.69 1028.41 1029.08 1029.69 1030.23 1030.69 1031.06 1031.35 1031.56 1031.71 1031.78 1031.80 1031.76 1031.66 1031.50 1031.30 1031.05 1030.75
1016.41 1016.83 1017.32 1017.86 1018.44 1019.02 1019.61 1020.18 1020.73 1021.25 1021.76 1022.26 1022.78 1023.31 1023.89 1024.51 1025.18 1025.88 1026.62 1027.37 1028.12 1028.84 1029.51 1030.13 1030.66 1031.11 1031.48 1031.76 1031.95 1032.07 1032.11 1032.08 1031.99 1031.83 1031.62 1031.36 1031.04 1030.69
1017.45 1017.84 1018.29 1018.79 1019.32 1019.87 1020.42 1020.96 1021.48 1021.99 1022.49 1022.99 1023.50 1024.04 1024.61 1025.22 1025.87 1026.57 1027.29 1028.03 1028.76 1029.46 1030.11 1030.71 1031.22 1031.65 1032.00 1032.25 1032.41 1032.49 1032.49 1032.42 1032.29 1032.09 1031.83 1031.52 1031.16 1030.75
Thickness
5492 5493 5493 5494 5494 5495 5496 5497 5499 5501 5503 5501 5497 5496 5494 5493 5493 5493 5494 5493 5493 5493 5493 5493 5493 5493 5492 5492 5492 5491 5491 5491 5491 5492 5492 5492 5492 5492
5481 5481 5482 5483 5483 5483 5484 5485 5487 5490 5493 5493 5488 5485 5483 5483 5483 5483 5483 5483 5482 5483 5483 5482 5482 5482 5482 5481 5481 5480 5480 5480 5479 5480 5480 5480 5480 5480
5470 5471 5472 5471 5471 5472 5473 5473 5474 5475 5477 5478 5475 5473 5472 5472 5472 5472 5473 5473 5473 5473 5472 5472 5471 5471 5471 5471 5471 5470 5469 5468 5467 5467 5467 5467 5467 5467
5460 5460 5461 5460 5460 5461 5461 5461 5462 5462 5463 5464 5463 5462 5462 5461 5461 5461 5461 5462 5462 5462 5462 5461 5461 5460 5460 5460 5460 5458 5457 5456 5455 5455 5455 5455 5454 5453
5449 5450 5450 5449 5449 5450 5450 5450 5450 5449 5449 5451 5451 5450 5450 5450 5449 5449 5450 5451 5451 5451 5451 5451 5450 5450 5450 5449 5448 5447 5446 5444 5443 5443 5442 5441 5441 5440
5438 5439 5439 5439 5439 5438 5438 5438 5437 5437 5437 5438 5438 5438 5438 5438 5437 5439 5439 5440 5440 5441 5440 5440 5439 5439 5439 5438 5438 5436 5434 5433 5431 5430 5430 5429 5428 5427
5426 5426 5427 5427 5427 5426 5426 5427 5426 5426 5426 5426 5427 5427 5427 5426 5428 5428 5428 5429 5429 5429 5430 5430 5429 5428 5427 5427 5425 5424 5423 5421 5420 5419 5417 5417 5416 5414
5413 5414 5414 5414 5414 5414 5415 5415 5416 5415 5416 5416 5417 5417 5418 5418 5417 5416 5417 5417 5419 5419 5417 5418 5417 5417 5416 5415 5414 5413 5411 5410 5408 5406 5405 5404 5403 5401
5401 5401 5402 5402 5402 5402 5402 5402 5403 5404 5405 5406 5407 5408 5407 5407 5406 5405 5405 5406 5407 5406 5404 5407 5406 5405 5404 5403 5402 5401 5399 5397 5396 5394 5392 5391 5389 5388
5388 5388 5389 5390 5390 5390 5389 5390 5391 5392 5392 5393 5395 5395 5394 5393 5393 5393 5393 5391 5390 5390 5389 5391 5392 5391 5390 5389 5388 5388 5386 5384 5382 5381 5379 5377 5375 5374
5375 5375 5376 5377 5378 5378 5377 5377 5378 5378 5378 5378 5379 5379 5379 5380 5379 5378 5378 5378 5379 5378 5375 5376 5376 5375 5375 5375 5374 5372 5371 5369 5367 5366 5364 5362 5360 5359
5363 5363 5363 5364 5365 5365 5364 5365 5365 5365 5365 5364 5365 5365 5365 5366 5366 5366 5367 5367 5367 5366 5363 5361 5361 5359 5359 5359 5357 5356 5355 5353 5352 5350 5348 5346 5345 5344
5351 5351 5351 5351 5352 5352 5352 5353 5353 5352 5351 5351 5351 5352 5352 5352 5353 5353 5353 5353 5354 5353 5350 5347 5346 5345 5343 5343 5341 5339 5337 5337 5336 5334 5332 5330 5329 5328
5339 5339 5340 5339 5340 5339 5339 5340 5339 5338 5338 5338 5339 5339 5339 5339 5339 5339 5339 5339 5338 5338 5335 5333 5332 5331 5329 5328 5327 5324 5321 5320 5319 5318 5316 5315 5314 5312
5325 5326 5326 5326 5326 5326 5326 5326 5325 5325 5325 5325 5326 5326 5326 5325 5324 5324 5323 5323 5322 5320 5319 5318 5318 5316 5314 5313 5312 5308 5306 5305 5303 5302 5301 5300 5299 5298
5312 5312 5312 5313 5313 5313 5312 5312 5312 5312 5312 5312 5313 5312 5310 5310 5310 5311 5310 5309 5307 5305 5303 5303 5302 5300 5299 5297 5295 5293 5291 5289 5288 5286 5286 5285 5284 5282
5301 5299 5299 5300 5300 5299 5299 5299 5298 5298 5298 5298 5297 5297 5297 5297 5296 5295 5295 5294 5293 5292 5290 5287 5286 5284 5282 5281 5280 5278 5276 5275 5274 5272 5271 5271 5270 5268
5289 5288 5287 5287 5287 5286 5286 5286 5285 5284 5284 5284 5283 5283 5283 5283 5282 5281 5280 5280 5279 5277 5276 5273 5271 5269 5268 5265 5263 5263 5262 5261 5259 5258 5256 5255 5256 5254
5277 5277 5275 5274 5274 5273 5273 5272 5270 5270 5270 5270 5270 5269 5269 5268 5268 5267 5266 5265 5263 5262 5260 5258 5256 5256 5256 5255 5251 5247 5247 5246 5245 5244 5242 5241 5241 5241
5264 5263 5262 5261 5260 5259 5258 5257 5256 5255 5255 5256 5256 5255 5255 5254 5254 5253 5252 5251 5249 5247 5245 5243 5242 5241 5241 5239 5236 5233 5230 5230 5231 5230 5229 5227 5227 5226
5250 5249 5248 5247 5246 5245 5244 5243 5242 5242 5241 5241 5241 5241 5241 5240 5240 5239 5238 5236 5235 5233 5232 5230 5227 5224 5222 5221 5220 5220 5218 5216 5215 5214 5214 5213 5214 5214
5236 5235 5234 5233 5232 5231 5230 5230 5229 5228 5228 5227 5227 5226 5226 5226 5226 5225 5223 5222 5221 5219 5217 5214 5211 5209 5208 5208 5207 5206 5204 5202 5201 5200 5199 5199 5199 5201
5222 5222 5220 5219 5219 5218 5218 5217 5216 5216 5215 5214 5213 5213 5212 5212 5211 5211 5210 5208 5206 5204 5202 5200 5198 5196 5194 5193 5191 5190 5189 5188 5188 5188 5187 5186 5186 5187